Regional Weather Roundup
Issued by NWS

Home | Current Version | Previous Version | Graphics & Text | Print | Product List | Glossary Off
Versions: 1 2 3 4 5 6 7 8 9 10 11 12 13 14 15 16 17 18 19 20 21 22 23 24 25 26 27 28 29 30 31 32 33 34 35 36 37 38 39 40 41 42 43 44 45 46 47 48 49 50

000
ASUS43 KDTX 240910
RWRMI
MICHIGAN HOURLY REGIONAL WEATHER ROUNDUP
NATIONAL WEATHER SERVICE DETROIT/PONTIAC MI
400 AM EST MON NOV 24 2014

NOTE: "FAIR" INDICATES FEW OR NO CLOUDS BELOW 12,000 FEET WITH NO
SIGNIFICANT WEATHER AND/OR OBSTRUCTION TO VISIBILITY.

MIZ047>049-052>055-059>063-066>070-074>076-081>083-241000-
SOUTHEAST LOWER MICHIGAN

CITY           SKY/WX    TMP DP  RH WIND       PRES   REMARKS
ADRIAN         LGT RAIN  55  52  89 SW17G25   29.11R
ALMA           LGT RAIN  49  49  99 SW7       29.00S
ANN ARBOR      LGT RAIN  56  53  90 SW18G26   29.06S
BAD AXE        CLOUDY    52  52 100 S21G29    29.02F
CARO           CLOUDY    50  50 100 SE10G20   29.00F
DETROIT CITY   LGT RAIN  57  52  83 S24G35    29.08F
DETROIT        RAIN      55  53  93 S23G29    29.08S FOG
FLINT          LGT RAIN  56  53  90 S12       29.02F FOG
GROSSE ILE     DRZL/FOG  46  45  93 S16       29.08S VSB 1/2
HILLSDALE      DRIZZLE   55  54  98 SW13G20   29.09R
HOWELL         LGT RAIN  54  53  97 S14G21    29.03S

CITY           SKY/WX    TMP DP  RH WIND       PRES   REMARKS
JACKSON        LGT RAIN  54  51  90 SW18G26   29.06
LAMBERTVILLE   CLOUDY    57  54  88 SW14G28   29.12R
LANSING        LGT RAIN  53  50  89 SW15G24   29.03R
LAPEER         LGT RAIN  53  51  94 S13G18    29.02F
MASON          LGT RAIN  54  52  94 SW9G21    29.04R
MONROE         LGT RAIN  57  55  94 SW18G26   29.08R
MT. CLEMENS    LGT RAIN  50  50 100 S20G28    29.05F
PONTIAC        LGT RAIN  54  52  93 S15G22    29.03F
PORT HOPE        N/A     48  47  96 SE12G21   29.00F
PORT HURON     RAIN      54  52  94 S20G26    29.07F
TRI CITIES     LGT RAIN  52  50  93 SW8       28.99F FOG
TROY           LGT RAIN  55  54  94 S15G31    29.07F
SAGINAW HB     LGT RAIN  52  52 100 S12       28.98F
$$
MIZ043>046-050>051-056>058-064>065-071>073-077>080-241000-
SOUTHWEST LOWER MICHIGAN

CITY           SKY/WX    TMP DP  RH WIND       PRES   REMARKS
BATTLE CREEK   LGT RAIN  53  49  86 SW16      29.06R
BENTON HARBOR  LGT RAIN  49  48  97 SW18G24   29.08R
BIG RAPIDS     LGT RAIN  46  46 100 W5        28.99F
COLDWATER      CLOUDY    54  52  94 SW20G25   29.09R
FREMONT        DRZL/FOG  46  46  98 CALM      29.00F VSB 3/4
HOLLAND        LGT RAIN  52  50  93 SW22      29.04S
GRAND RAPIDS   LGT RAIN  50  48  93 SW12      29.03S
IONIA          LGT RAIN  51  50  99 SW14      29.01S
KALAMAZOO      LGT RAIN  52  49  89 SW15G22   29.07R
LUDINGTON      LGT RAIN  47  46  97 CALM      29.00F
MARSHALL       DRIZZLE   51  50  93 MISG      29.06R
MOUNT PLEASANT RAIN      48  47  97 CALM      28.98F
MUSKEGON       LGT RAIN  50  47  89 SW12      29.02F
SOUTH HAVEN    DRIZZLE   51  50  97 SW15G23   29.06R
$$
MIZ016>042-241000-
NORTHERN LOWER MICHIGAN

CITY           SKY/WX    TMP DP  RH WIND       PRES   REMARKS
ALPENA         LGT RAIN  44  42  93 SE12      28.99F FOG
BEAVER ISLAND  LGT RAIN  43  42  98 E7        28.99F
BELLAIRE       LGT SNOW  42  41  97 CALM      28.98F
CADILLAC       LGT RAIN  45  45  99 CALM      28.98F
CHARLEVOIX     LGT RAIN  45  45 100 CALM      29.00F
FRANKFORT      LGT RAIN  46  46  99 CALM      28.99F
GAYLORD        RAIN      42  42 100 SE6       28.96F FOG
GRAYLING       MIX PCPN  46  46 100 CALM      28.98F
HARBOR SPRINGS RAIN      42  42  99 NE7       28.97F
HOUGHTON LAKE  LGT RAIN  46  45  96 CALM      28.97F
MANISTEE       CLOUDY    46  45  93 CALM      29.00F
OSCODA         LGT RAIN  47  47 100 S10       28.98F
PELLSTON       LGT RAIN  42  41  96 E5        28.99F FOG
ROGERS CITY    LGT RAIN  43  43 100 SE7       29.00F
TRAVERSE CITY  LGT RAIN  45  44  97 CALM      28.97F FOG
$$
MIZ007>008-015-241000-
EASTERN UPPER MICHIGAN

CITY           SKY/WX    TMP DP  RH WIND       PRES   REMARKS
KINROSS        CLOUDY    41  41 100 E14G21    29.02F
MACKINAC ISLAN MIX PCPN  43  43 100 E9G22     29.00F
NEWBERRY       LGT RAIN  39  39 100 NE8       29.02F WCI  34
S. S. MARIE    RAIN      42  41  96 E8        29.03F FOG
MUNISING         N/A     41  38  89 CALM      29.03F
$$
MIZ004>006-011>014-085-241000-
CENTRAL UPPER MICHIGAN

CITY           SKY/WX    TMP DP  RH WIND       PRES   REMARKS
MANISTIQUE     RAIN      42  42 100 NE5       29.01F
ESCANABA       CLOUDY    43  39  87 N3        29.02F
MENOMINEE      CLOUDY    43  39  87 N3        29.02F
SAWYER-GWINN   LGT RAIN  36  36  98 N5        29.04F VSB 3/4 WCI  32
$$
MIZ001>003-009>011-084-241000-
WESTERN UPPER MICHIGAN

CITY           SKY/WX    TMP DP  RH WIND       PRES   REMARKS
IRON MOUNTAIN  LGT RAIN  37  36  96 NW5       29.04F VSB 3/4 WCI  33
HOUGHTON       LGT RAIN  40  38  93 N12       29.07F VSB 1/2 WCI  33
COPPER HARBOR    N/A     41  39  93 E5        29.09F
IRONWOOD       CLOUDY    37  37 100 NW8       29.11F WCI  31
$$

ABBREVIATIONS USED IN REMARKS
   TC - TEMPERATURE IN CELSIUS
  WCI - WIND CHILL INDEX
   HX - HEAT INDEX
  VSB - VISIBILITY




USA.gov is the U.S. government's official web portal to all federal, state and local government web resources and services.